Ellensburg, WA
on Wednesday, December 12, 2012

Wednesday
Previous Day Next Day
Daily Summary
 ActualAverage (KYKM)Record (KYKM)
Temperature
Mean Temperature °F 28°F  
Max Temperature 45°F 36°F 56°F (1956)
Min Temperature 28°F 21°F -8°F (1972)
Degree Days
Heating Degree Days 28 37  
Month to date heating degree days 421  
Since 1 July heating degree days 1954  
Cooling Degree Days 0 0  
Month to date cooling degree days 0  
Year to date cooling degree days 472  
Moisture
Dew Point 28°F   
Average Humidity 81    
Maximum Humidity 93    
Minimum Humidity 56    
Precipitation
Precipitation 0.00 in 0.05 in 0.77 in (1995)
Month to date precipitation 0.58  
Year to date precipitation 7.30  
Snow
Snow 0.00 in 0.30 in 2.80 in (1972)
Month to date snowfall 3.5  
Year to date snowfall 15.7  
Since 1 July snowfall 7.1  
Snow Depth in   
Wind
Wind Speed 3 mph   
Max Wind Speed 15 mph   
Max Gust Speed mph   
Visibility 5 miles   
Events Fog   

Key: T is trace of precipitation, MM is missing value
Source: NWS Daily Summary
Time(PST)TemperatureDew PointHumidity Pressure Visibility Wind DirectionWind SpeedGust SpeedPrecipitationEvents Conditions
12:53 AM 33.1°F 28.9°F 85% 29.59 in 10.0 miles West 4.6 mph - N/A   Mostly Cloudy
1:53 AM 32.0°F 27.0°F 82% 29.60 in 9.0 miles SE 3.5 mph - N/A   Mostly Cloudy
2:13 AM 30.2°F 26.6°F 86% 29.58 in 2.0 miles East 3.5 mph - N/A   Mostly Cloudy
2:15 AM 30.2°F 26.6°F 86% 29.58 in 1.0 miles Calm Calm - N/A   Mostly Cloudy
2:22 AM 30.2°F 26.6°F 86% 29.58 in 0.2 miles ENE 3.5 mph - N/A Fog Light Freezing Fog
2:53 AM 30.0°F 26.1°F 85% 29.62 in 0.2 miles East 5.8 mph - N/A Fog Light Freezing Fog
3:53 AM 33.1°F 28.9°F 85% 29.62 in 0.8 miles NE 3.5 mph - N/A   Overcast
4:20 AM 32.0°F 28.4°F 87% 29.60 in 1.2 miles Calm Calm - N/A   Overcast
4:45 AM 32.0°F 28.4°F 87% 29.60 in 3.0 miles NNE 4.6 mph - N/A   Overcast
4:53 AM 32.0°F 28.9°F 88% 29.64 in 5.0 miles Calm Calm - N/A   Overcast
5:07 AM 32.0°F 28.4°F 87% 29.60 in 1.8 miles Calm Calm - N/A   Overcast
5:13 AM 32.0°F 28.4°F 87% 29.60 in 0.8 miles Calm Calm - N/A   Mist
5:53 AM 32.0°F 28.0°F 85% 29.65 in 0.2 miles Calm Calm - N/A Fog Fog
6:53 AM 30.0°F 27.0°F 88% 29.68 in 0.2 miles Calm Calm - N/A Fog Light Freezing Fog
7:13 AM 30.2°F 26.6°F 86% 29.65 in 1.2 miles Calm Calm - N/A   Overcast
7:20 AM 30.2°F 26.6°F 86% 29.65 in 3.0 miles North 3.5 mph - N/A   Overcast
7:50 AM 28.4°F 26.6°F 93% 29.66 in 1.8 miles Calm Calm - N/A   Overcast
7:53 AM 28.9°F 25.0°F 85% 29.70 in 0.8 miles SE 3.5 mph - N/A   Overcast
8:00 AM 28.4°F 24.8°F 86% 29.66 in 0.2 miles Calm Calm - N/A Fog Light Freezing Fog
8:12 AM 28.4°F 24.8°F 86% 29.67 in 1.2 miles Calm Calm - N/A   Scattered Clouds
8:20 AM 28.4°F 24.8°F 86% 29.68 in 2.5 miles South 4.6 mph - N/A   Scattered Clouds
8:22 AM 28.4°F 24.8°F 86% 29.67 in 0.8 miles South 3.5 mph - N/A   Mist
8:53 AM 28.9°F 26.1°F 89% 29.74 in 0.2 miles Calm Calm - N/A Fog Light Freezing Fog
9:19 AM 33.8°F 28.4°F 81% 29.70 in 1.2 miles Calm Calm - N/A   Mostly Cloudy
9:26 AM 33.8°F 28.4°F 81% 29.71 in 3.0 miles Calm Calm - N/A   Mostly Cloudy
9:35 AM 33.8°F 28.4°F 81% 29.71 in 6.0 miles Calm Calm - N/A   Scattered Clouds
9:53 AM 34.0°F 30.0°F 85% 29.75 in 5.0 miles Calm Calm - N/A   Mostly Cloudy
10:53 AM 37.0°F 32.0°F 82% 29.77 in 7.0 miles Calm Calm - N/A   Mostly Cloudy
11:53 AM 42.1°F 33.1°F 70% 29.78 in 10.0 miles NW 10.4 mph - N/A   Partly Cloudy
12:53 PM 44.1°F 32.0°F 63% 29.78 in 10.0 miles NW 12.7 mph - N/A   Mostly Cloudy
1:53 PM 45.0°F 30.9°F 58% 29.79 in 10.0 miles NW 15.0 mph - N/A   Clear
2:53 PM 45.0°F 30.0°F 56% 29.81 in 10.0 miles WNW 12.7 mph - N/A   Clear
3:53 PM 41.0°F 30.0°F 65% 29.85 in 10.0 miles NW 9.2 mph - N/A   Overcast
4:53 PM 39.9°F 32.0°F 73% 29.88 in 10.0 miles NNW 9.2 mph - N/A   Overcast
5:53 PM 37.9°F 30.9°F 76% 29.90 in 10.0 miles NNE 4.6 mph - N/A   Overcast
6:53 PM 37.0°F 28.9°F 73% 29.91 in 10.0 miles SW 4.6 mph - N/A   Overcast
7:53 PM 32.0°F 27.0°F 82% 29.94 in 10.0 miles Calm Calm - N/A   Clear
8:53 PM 32.0°F 28.0°F 85% 29.97 in 10.0 miles Calm Calm - N/A   Overcast
9:53 PM 35.1°F 28.9°F 78% 29.98 in 10.0 miles WNW 3.5 mph - N/A   Mostly Cloudy
10:53 PM 33.1°F 27.0°F 78% 29.99 in 10.0 miles West 3.5 mph - N/A   Clear
11:53 PM 28.0°F 23.0°F 81% 30.00 in 10.0 miles ENE 4.6 mph - N/A   Clear
Moon Phase
Dec. 12 Dec. 13 Dec. 20 Dec. 28 Jan. 04
Sunrise:07:39 AM (PST) Moon Rise:06:48 AM (PST)12/12
Sunset:04:12 PM (PST) Moon Set:03:56 PM (PST)12/12

Copyright © 2014 The Weather Underground, Inc.